Weather History for KOWD - January, 2012

Change the Weather History Date:

Friday, January 13, 2012

  Actual Average Record
Temperature  
Mean Temperature 42 °F -  
Max Temperature 55 °F 32 °F 57 °F (2005)
Min Temperature 30 °F 15 °F 5 °F (2001)
Degree Days  
Heating Degree Days 22    
Moisture  
Dew Point 31 °F    
Average Humidity 74    
Maximum Humidity 93    
Minimum Humidity 39    
Precipitation  
Precipitation 0.03 in - - ()
Sea Level Pressure  
Sea Level Pressure 29.42 in    
Wind  
Wind Speed 6 mph (SSW)    
Max Wind Speed 23 mph    
Max Gust Speed 38 mph    
Visibility 6 miles    
Events Fog , Rain    
Averages and records for this station are not official NWS values.
T = Trace of Precipitation, MM = Missing Value Source: NWS Daily Summary

Daily Weather History Graph

Daily Weather History Graph

Search for Another Location

Airport or City:

Trip Planner

Search our weather history database for the weather conditions in past years. The results will help you decide how hot, cold, wet, or windy it might be!

Date:

Astronomy

Jan. 13, 2012 Rise Set
Actual Time 7:11 AM EST 4:34 PM EST
Civil Twilight 6:40 AM EST 5:06 PM EST
Nautical Twilight 6:06 AM EST 5:40 PM EST
Astronomical Twilight 5:32 AM EST 6:14 PM EST
Moon 9:51 PM EST (1/13) 9:18 AM EST (1/13)
Length of Visible Light 10h 25m
Length of Day
9h 23m
Waning Gibbous, 79% of the Moon is Illuminated
Jan 13
Waning Gibbous
Jan 16
Last Quarter
Jan 23
New
Jan 30
First Quarter
Feb 7
Full

Hourly Weather History & Observations

Time (EST) Temp. Windchill Dew Point Humidity Pressure Visibility Wind Dir Wind Speed Gust Speed Precip Events Conditions
12:53 AM 35.1 °F - 32.0 °F 89% 29.56 in 5.0 mi Calm Calm - N/A   Overcast
1:53 AM 35.1 °F - 32.0 °F 89% 29.57 in 6.0 mi Calm Calm - N/A   Overcast
2:53 AM 35.1 °F 32.2 °F 33.1 °F 92% 29.56 in 7.0 mi East 3.5 mph - N/A   Overcast
3:53 AM 36.0 °F 32.1 °F 32.0 °F 86% 29.53 in 4.0 mi NE 4.6 mph - N/A   Overcast
4:05 AM 35.6 °F - 33.8 °F 93% 29.53 in 2.5 mi Calm Calm - N/A   Overcast
4:18 AM 35.6 °F 31.7 °F 33.8 °F 93% 29.52 in 1.2 mi North 4.6 mph - N/A   Overcast
4:39 AM 35.6 °F - 33.8 °F 93% 29.52 in 0.8 mi Calm Calm - N/A   Overcast
4:53 AM 36.0 °F - 34.0 °F 93% 29.52 in 0.8 mi Calm Calm - N/A   Overcast
5:01 AM 35.6 °F - 33.8 °F 93% 29.52 in 0.5 mi Calm Calm - N/A Fog Fog
5:53 AM 37.0 °F - 34.0 °F 89% 29.48 in 0.5 mi Calm Calm - N/A Fog Fog
6:17 AM 37.4 °F 33.8 °F 35.6 °F 93% 29.46 in 1.0 mi NE 4.6 mph - N/A   Overcast
6:53 AM 39.0 °F 35.7 °F 37.0 °F 93% 29.43 in 1.5 mi East 4.6 mph - 0.00 in Rain Light Rain
7:35 AM 39.2 °F - 37.4 °F 93% 29.40 in 2.5 mi Calm Calm - 0.01 in Rain Light Rain
7:53 AM 39.9 °F 35.8 °F 37.0 °F 89% 29.38 in 2.0 mi East 5.8 mph - 0.02 in Rain Light Rain
8:09 AM 41.0 °F 37.1 °F 39.2 °F 93% 29.36 in 2.0 mi ESE 5.8 mph - 0.00 in   Overcast
8:53 AM 44.1 °F 42.5 °F 42.1 °F 93% 29.32 in 2.0 mi Variable 3.5 mph - 0.00 in   Overcast
9:43 AM 48.2 °F - 46.4 °F 93% 29.29 in 5.0 mi SE 8.1 mph - 0.00 in   Overcast
9:49 AM 48.2 °F - 46.4 °F 93% 29.29 in 5.0 mi SSE 8.1 mph - 0.00 in   Mostly Cloudy
9:53 AM 48.9 °F - 46.9 °F 93% 29.29 in 5.0 mi SSE 8.1 mph - 0.00 in   Mostly Cloudy
10:03 AM 51.8 °F - 48.2 °F 88% 29.28 in 9.0 mi South 6.9 mph - N/A   Scattered Clouds
10:53 AM 55.0 °F - 46.9 °F 74% 29.23 in 10.0 mi SSW 12.7 mph 26.5 mph N/A   Mostly Cloudy
11:53 AM 53.1 °F - 30.9 °F 43% 29.19 in 10.0 mi SW 16.1 mph 36.8 mph N/A   Mostly Cloudy
12:53 PM 50.0 °F - 26.1 °F 39% 29.20 in 10.0 mi SW 23.0 mph 32.2 mph 0.01 in   Partly Cloudy
1:53 PM 46.9 °F - 28.0 °F 48% 29.21 in 10.0 mi SW 17.3 mph 28.8 mph N/A   Partly Cloudy
2:53 PM 44.1 °F 36.5 °F 24.1 °F 45% 29.24 in 10.0 mi SW 17.3 mph 32.2 mph N/A   Mostly Cloudy
3:53 PM 39.9 °F 31.8 °F 21.9 °F 49% 29.30 in 10.0 mi WSW 15.0 mph 26.5 mph N/A   Overcast
4:53 PM 36.0 °F 24.4 °F 16.0 °F 44% 29.39 in 10.0 mi WSW 23.0 mph 38.0 mph N/A   Overcast
5:53 PM 33.1 °F 23.4 °F 14.0 °F 46% 29.44 in 10.0 mi WSW 13.8 mph 36.8 mph N/A   Clear
6:53 PM 32.0 °F 20.1 °F 12.0 °F 44% 29.48 in 10.0 mi WSW 19.6 mph 28.8 mph N/A   Partly Cloudy
7:53 PM 32.0 °F 22.1 °F 12.0 °F 44% 29.52 in 10.0 mi WSW 13.8 mph 25.3 mph N/A   Overcast
8:53 PM 32.0 °F 20.5 °F 12.0 °F 44% 29.54 in 10.0 mi WSW 18.4 mph 32.2 mph N/A   Clear
10:53 PM 30.9 °F 19.8 °F 14.0 °F 50% 29.59 in 10.0 mi WSW 16.1 mph 25.3 mph N/A   Partly Cloudy
11:53 PM 32.0 °F 22.5 °F 15.1 °F 50% 29.62 in 10.0 mi WSW 12.7 mph 23.0 mph N/A   Overcast